Time,TemperatureF,DewpointF,PressureIn,WindDirection,WindDirectionDegrees,WindSpeedMPH,WindSpeedGustMPH,Humidity,HourlyPrecipIn,Conditions,Clouds,dailyrainin,SolarRadiationWatts/m^2,SoftwareType,DateUTC
2013-05-26 00:03:00,52.0,27.0,-100.00,SSW,194,0.0,0.0,37,0.00,,,0.00,0.000000,,2013-05-26 04:03:00,
2013-05-26 00:33:00,50.0,26.0,-100.00,North,10,0.0,0.0,39,0.00,,,0.00,0.000000,,2013-05-26 04:33:00,
2013-05-26 00:43:00,50.0,26.0,-100.00,North,10,0.0,0.0,39,0.00,,,0.00,0.000000,,2013-05-26 04:43:00,
2013-05-26 00:52:00,50.0,26.0,-100.00,North,10,0.0,0.0,39,0.00,,,0.00,0.000000,,2013-05-26 04:52:00,
2013-05-26 01:02:00,50.0,26.0,-100.00,North,10,0.0,0.0,39,0.00,,,0.00,0.000000,,2013-05-26 05:02:00,
2013-05-26 01:32:00,49.0,31.0,-100.00,NNE,30,0.0,0.0,49,0.00,,,0.00,0.000000,,2013-05-26 05:32:00,
2013-05-26 01:42:00,49.0,31.0,-100.00,NNE,30,0.0,0.0,49,0.00,,,0.00,0.000000,,2013-05-26 05:42:00,
2013-05-26 01:52:00,49.0,31.0,-100.00,NNE,30,0.0,0.0,49,0.00,,,0.00,0.000000,,2013-05-26 05:52:00,
2013-05-26 02:01:00,49.0,31.0,-100.00,NNE,30,0.0,0.0,49,0.00,,,0.00,0.000000,,2013-05-26 06:01:00,
2013-05-26 02:32:00,50.0,29.0,-100.00,WNW,293,0.0,1.0,45,0.00,,,0.00,0.000000,,2013-05-26 06:32:00,
2013-05-26 02:42:00,50.0,29.0,-100.00,WNW,293,0.0,1.0,45,0.00,,,0.00,0.000000,,2013-05-26 06:42:00,
2013-05-26 02:52:00,50.0,29.0,-100.00,WNW,293,0.0,1.0,45,0.00,,,0.00,0.000000,,2013-05-26 06:52:00,
2013-05-26 03:02:00,50.0,29.0,-100.00,WNW,293,0.0,1.0,45,0.00,,,0.00,0.000000,,2013-05-26 07:02:00,
2013-05-26 03:32:00,51.0,32.0,-100.00,NNE,31,0.0,0.0,48,0.00,,,0.00,0.000000,,2013-05-26 07:32:00,
2013-05-26 03:42:00,51.0,32.0,-100.00,NNE,31,0.0,0.0,48,0.00,,,0.00,0.000000,,2013-05-26 07:42:00,
2013-05-26 03:52:00,51.0,32.0,-100.00,NNE,31,0.0,0.0,48,0.00,,,0.00,0.000000,,2013-05-26 07:52:00,
2013-05-26 04:01:00,51.0,32.0,-100.00,NNE,31,0.0,0.0,48,0.00,,,0.00,0.000000,,2013-05-26 08:01:00,
2013-05-26 04:32:00,52.0,30.0,-100.00,NE,35,0.0,0.0,42,0.00,,,0.00,0.000000,,2013-05-26 08:32:00,
2013-05-26 04:42:00,52.0,30.0,-100.00,NE,35,0.0,0.0,42,0.00,,,0.00,0.000000,,2013-05-26 08:42:00,
2013-05-26 04:53:00,52.0,30.0,-100.00,NE,35,0.0,0.0,42,0.00,,,0.00,0.000000,,2013-05-26 08:53:00,
2013-05-26 05:01:00,52.0,30.0,-100.00,NE,35,0.0,0.0,42,0.00,,,0.00,0.000000,,2013-05-26 09:01:00,
2013-05-26 05:34:00,51.0,24.0,-100.00,North,9,0.0,0.0,35,0.00,,,0.00,0.000000,,2013-05-26 09:34:00,
2013-05-26 05:43:00,51.0,24.0,-100.00,North,9,0.0,0.0,35,0.00,,,0.00,0.000000,,2013-05-26 09:43:00,
2013-05-26 05:53:00,51.0,24.0,-100.00,North,9,0.0,0.0,35,0.00,,,0.00,0.000000,,2013-05-26 09:53:00,
2013-05-26 06:03:00,51.0,24.0,-100.00,North,9,0.0,0.0,35,0.00,,,0.00,0.000000,,2013-05-26 10:03:00,
2013-05-26 06:33:00,51.0,27.0,-100.00,North,7,0.0,0.0,39,0.00,,,0.00,0.000000,,2013-05-26 10:33:00,
2013-05-26 06:42:00,51.0,27.0,-100.00,North,7,0.0,0.0,39,0.00,,,0.00,0.000000,,2013-05-26 10:42:00,
2013-05-26 06:52:00,51.0,27.0,-100.00,North,7,0.0,0.0,39,0.00,,,0.00,0.000000,,2013-05-26 10:52:00,
2013-05-26 07:03:00,51.0,27.0,-100.00,North,7,0.0,0.0,39,0.00,,,0.00,0.000000,,2013-05-26 11:03:00,
2013-05-26 07:32:00,51.0,28.0,-100.00,NE,38,0.0,0.0,41,0.00,,,0.00,5.000000,,2013-05-26 11:32:00,
2013-05-26 07:42:00,51.0,28.0,-100.00,NE,38,0.0,0.0,41,0.00,,,0.00,5.000000,,2013-05-26 11:42:00,
2013-05-26 07:52:00,51.0,28.0,-100.00,NE,38,0.0,0.0,41,0.00,,,0.00,5.000000,,2013-05-26 11:52:00,
2013-05-26 08:02:00,51.0,28.0,-100.00,NE,38,0.0,0.0,41,0.00,,,0.00,5.000000,,2013-05-26 12:02:00,
2013-05-26 08:32:00,53.0,32.0,-100.00,SW,226,0.0,0.0,45,0.00,,,0.00,41.000000,,2013-05-26 12:32:00,
2013-05-26 08:42:00,53.0,32.0,-100.00,SW,226,0.0,0.0,45,0.00,,,0.00,41.000000,,2013-05-26 12:42:00,
2013-05-26 08:52:00,53.0,32.0,-100.00,SW,226,0.0,0.0,45,0.00,,,0.00,41.000000,,2013-05-26 12:52:00,
2013-05-26 09:02:00,53.0,32.0,-100.00,SW,226,0.0,0.0,45,0.00,,,0.00,41.000000,,2013-05-26 13:02:00,
2013-05-26 09:32:00,53.0,34.0,-100.00,South,169,0.0,0.0,49,0.00,,,0.00,73.000000,,2013-05-26 13:32:00,
2013-05-26 09:42:00,53.0,34.0,-100.00,South,169,0.0,0.0,49,0.00,,,0.00,73.000000,,2013-05-26 13:42:00,
2013-05-26 09:52:00,53.0,34.0,-100.00,South,169,0.0,0.0,49,0.00,,,0.00,73.000000,,2013-05-26 13:52:00,
2013-05-26 10:02:00,53.0,34.0,-100.00,South,169,0.0,0.0,49,0.00,,,0.00,73.000000,,2013-05-26 14:02:00,
2013-05-26 10:32:00,52.0,42.0,-100.00,SSW,193,0.0,0.0,69,0.00,,,0.00,149.000000,,2013-05-26 14:32:00,
2013-05-26 10:42:00,52.0,42.0,-100.00,SSW,193,0.0,0.0,69,0.00,,,0.00,149.000000,,2013-05-26 14:42:00,
2013-05-26 10:52:00,52.0,42.0,-100.00,SSW,193,0.0,0.0,69,0.00,,,0.00,149.000000,,2013-05-26 14:52:00,
2013-05-26 11:02:00,52.0,42.0,-100.00,SSW,193,0.0,0.0,69,0.00,,,0.00,149.000000,,2013-05-26 15:02:00,
2013-05-26 11:33:00,58.0,45.0,-100.00,WSW,251,0.0,0.0,62,0.00,,,0.00,296.000000,,2013-05-26 15:33:00,
2013-05-26 11:43:00,58.0,45.0,-100.00,WSW,251,0.0,0.0,62,0.00,,,0.00,296.000000,,2013-05-26 15:43:00,
2013-05-26 11:53:00,58.0,45.0,-100.00,WSW,251,0.0,0.0,62,0.00,,,0.00,296.000000,,2013-05-26 15:53:00,
2013-05-26 12:03:00,58.0,45.0,-100.00,WSW,251,0.0,0.0,62,0.00,,,0.00,296.000000,,2013-05-26 16:03:00,
2013-05-26 12:33:00,55.0,47.0,-100.00,NNW,333,0.0,1.0,74,0.00,,,0.00,293.000000,,2013-05-26 16:33:00,
2013-05-26 12:42:00,55.0,47.0,-100.00,NNW,333,0.0,1.0,74,0.00,,,0.00,293.000000,,2013-05-26 16:42:00,
2013-05-26 12:53:00,55.0,47.0,-100.00,NNW,333,0.0,1.0,74,0.00,,,0.00,293.000000,,2013-05-26 16:53:00,
2013-05-26 13:02:00,55.0,47.0,-100.00,NNW,333,0.0,1.0,74,0.00,,,0.00,293.000000,,2013-05-26 17:02:00,
2013-05-26 13:32:00,63.0,47.0,-100.00,WNW,283,1.0,6.0,55,0.00,,,0.00,900.000000,,2013-05-26 17:32:00,
2013-05-26 13:42:00,63.0,47.0,-100.00,WNW,283,1.0,6.0,55,0.00,,,0.00,900.000000,,2013-05-26 17:42:00,
2013-05-26 13:52:00,63.0,47.0,-100.00,WNW,283,1.0,6.0,55,0.00,,,0.00,900.000000,,2013-05-26 17:52:00,
2013-05-26 14:01:00,63.0,47.0,-100.00,WNW,283,1.0,6.0,55,0.00,,,0.00,900.000000,,2013-05-26 18:01:00,
2013-05-26 14:32:00,65.0,47.0,-100.00,WNW,286,1.0,9.0,53,0.00,,,0.00,1011.000000,,2013-05-26 18:32:00,
2013-05-26 14:42:00,65.0,47.0,-100.00,WNW,286,1.0,9.0,53,0.00,,,0.00,1011.000000,,2013-05-26 18:42:00,
2013-05-26 14:52:00,65.0,47.0,-100.00,WNW,286,1.0,9.0,53,0.00,,,0.00,1011.000000,,2013-05-26 18:52:00,
2013-05-26 15:01:00,65.0,47.0,-100.00,WNW,286,1.0,9.0,53,0.00,,,0.00,1011.000000,,2013-05-26 19:01:00,
2013-05-26 15:32:00,67.0,44.0,-100.00,WNW,295,1.0,8.0,43,0.00,,,0.00,999.000000,,2013-05-26 19:32:00,
2013-05-26 15:42:00,67.0,44.0,-100.00,WNW,295,1.0,8.0,43,0.00,,,0.00,999.000000,,2013-05-26 19:42:00,
2013-05-26 15:52:00,67.0,44.0,-100.00,WNW,295,1.0,8.0,43,0.00,,,0.00,999.000000,,2013-05-26 19:52:00,
2013-05-26 16:02:00,67.0,44.0,-100.00,WNW,295,1.0,8.0,43,0.00,,,0.00,999.000000,,2013-05-26 20:02:00,
2013-05-26 16:32:00,65.0,40.0,-100.00,West,268,1.0,5.0,40,0.00,,,0.00,796.000000,,2013-05-26 20:32:00,
2013-05-26 16:42:00,65.0,40.0,-100.00,West,268,1.0,5.0,40,0.00,,,0.00,796.000000,,2013-05-26 20:42:00,
2013-05-26 16:52:00,65.0,40.0,-100.00,West,268,1.0,5.0,40,0.00,,,0.00,796.000000,,2013-05-26 20:52:00,
2013-05-26 17:02:00,65.0,40.0,-100.00,West,268,1.0,5.0,40,0.00,,,0.00,796.000000,,2013-05-26 21:02:00,
2013-05-26 17:33:00,69.0,46.0,-100.00,NW,312,1.0,7.0,44,0.00,,,0.00,563.000000,,2013-05-26 21:33:00,
2013-05-26 17:43:00,69.0,46.0,-100.00,NW,312,1.0,7.0,44,0.00,,,0.00,563.000000,,2013-05-26 21:43:00,
2013-05-26 17:53:00,69.0,46.0,-100.00,NW,312,1.0,7.0,44,0.00,,,0.00,563.000000,,2013-05-26 21:53:00,
2013-05-26 18:03:00,69.0,46.0,-100.00,NW,312,1.0,7.0,44,0.00,,,0.00,563.000000,,2013-05-26 22:03:00,
2013-05-26 18:33:00,70.0,45.0,-100.00,West,264,1.0,6.0,41,0.00,,,0.00,413.000000,,2013-05-26 22:33:00,
2013-05-26 18:42:00,70.0,45.0,-100.00,West,264,1.0,6.0,41,0.00,,,0.00,413.000000,,2013-05-26 22:42:00,
2013-05-26 18:53:00,70.0,45.0,-100.00,West,264,1.0,6.0,41,0.00,,,0.00,413.000000,,2013-05-26 22:53:00,
2013-05-26 19:02:00,70.0,45.0,-100.00,West,264,1.0,6.0,41,0.00,,,0.00,413.000000,,2013-05-26 23:02:00,
2013-05-26 19:32:00,64.0,39.0,-100.00,West,274,0.0,3.0,40,0.00,,,0.00,365.000000,,2013-05-26 23:32:00,
2013-05-26 19:43:00,64.0,39.0,-100.00,West,274,0.0,3.0,40,0.00,,,0.00,365.000000,,2013-05-26 23:43:00,
2013-05-26 19:52:00,64.0,39.0,-100.00,West,274,0.0,3.0,40,0.00,,,0.00,365.000000,,2013-05-26 23:52:00,
2013-05-26 20:02:00,64.0,39.0,-100.00,West,274,0.0,3.0,40,0.00,,,0.00,365.000000,,2013-05-27 00:02:00,
2013-05-26 20:32:00,60.0,39.0,-100.00,SSW,210,0.0,0.0,46,0.00,,,0.00,27.000000,,2013-05-27 00:32:00,
2013-05-26 20:42:00,60.0,39.0,-100.00,SSW,210,0.0,0.0,46,0.00,,,0.00,27.000000,,2013-05-27 00:42:00,
2013-05-26 20:52:00,60.0,39.0,-100.00,SSW,210,0.0,0.0,46,0.00,,,0.00,27.000000,,2013-05-27 00:52:00,
2013-05-26 21:01:00,60.0,39.0,-100.00,SSW,210,0.0,0.0,46,0.00,,,0.00,27.000000,,2013-05-27 01:01:00,
2013-05-26 21:32:00,57.0,39.0,-100.00,SSW,210,0.0,0.0,50,0.00,,,0.00,4.000000,,2013-05-27 01:32:00,
2013-05-26 21:42:00,57.0,39.0,-100.00,SSW,210,0.0,0.0,50,0.00,,,0.00,4.000000,,2013-05-27 01:42:00,
2013-05-26 21:52:00,57.0,39.0,-100.00,SSW,210,0.0,0.0,50,0.00,,,0.00,4.000000,,2013-05-27 01:52:00,
2013-05-26 22:02:00,57.0,39.0,-100.00,SSW,210,0.0,0.0,50,0.00,,,0.00,4.000000,,2013-05-27 02:02:00,
2013-05-26 22:32:00,54.0,48.0,-100.00,SSW,203,0.0,0.0,81,0.00,,,0.00,0.000000,,2013-05-27 02:32:00,
2013-05-26 22:43:00,54.0,48.0,-100.00,SSW,203,0.0,0.0,81,0.00,,,0.00,0.000000,,2013-05-27 02:43:00,
2013-05-26 22:52:00,54.0,48.0,-100.00,SSW,203,0.0,0.0,81,0.00,,,0.00,0.000000,,2013-05-27 02:52:00,
2013-05-26 23:02:00,54.0,48.0,-100.00,SSW,203,0.0,0.0,81,0.00,,,0.00,0.000000,,2013-05-27 03:02:00,
2013-05-26 23:33:00,56.0,40.0,-100.00,NNE,22,0.0,0.0,54,0.00,,,0.00,0.000000,,2013-05-27 03:33:00,
2013-05-26 23:43:00,56.0,40.0,-100.00,NNE,22,0.0,0.0,54,0.00,,,0.00,0.000000,,2013-05-27 03:43:00,
2013-05-26 23:53:00,56.0,40.0,-100.00,NNE,22,0.0,0.0,54,0.00,,,0.00,0.000000,,2013-05-27 03:53:00,